TimePDT,TemperatureF,Dew PointF,Humidity,Sea Level PressureIn,VisibilityMPH,Wind Direction,Wind SpeedMPH,Gust SpeedMPH,PrecipitationIn,Events,Conditions,WindDirDegrees,DateUTC
12:15 AM,46.4,30.2,53,30.12,10.0,Calm,Calm,-,N/A,,Clear,0,2013-09-10 07:15:00
12:35 AM,46.4,30.2,53,30.12,10.0,NNE,3.5,-,N/A,,Clear,30,2013-09-10 07:35:00
12:55 AM,41.0,26.6,57,30.13,10.0,Calm,Calm,-,N/A,,Clear,0,2013-09-10 07:55:00
1:15 AM,44.6,28.4,53,30.13,10.0,Calm,Calm,-,N/A,,Clear,0,2013-09-10 08:15:00
1:35 AM,42.8,32.0,66,30.13,10.0,SSW,3.5,-,N/A,,Clear,210,2013-09-10 08:35:00
1:55 AM,41.0,30.2,65,30.13,10.0,Calm,Calm,-,N/A,,Clear,0,2013-09-10 08:55:00
2:15 AM,44.6,32.0,61,30.13,10.0,Calm,Calm,-,N/A,,Clear,0,2013-09-10 09:15:00
2:35 AM,42.8,30.2,61,30.13,10.0,Calm,Calm,-,N/A,,Clear,0,2013-09-10 09:35:00
2:55 AM,37.4,26.6,65,30.13,10.0,Calm,Calm,-,N/A,,Clear,0,2013-09-10 09:55:00
3:15 AM,41.0,28.4,61,30.13,10.0,Calm,Calm,-,N/A,,Clear,0,2013-09-10 10:15:00
3:35 AM,37.4,26.6,65,30.13,10.0,Calm,Calm,-,N/A,,Clear,0,2013-09-10 10:35:00
3:55 AM,41.0,30.2,65,30.13,10.0,Calm,Calm,-,N/A,,Clear,0,2013-09-10 10:55:00
4:15 AM,37.4,28.4,70,30.13,10.0,Calm,Calm,-,N/A,,Clear,0,2013-09-10 11:15:00
4:35 AM,37.4,28.4,70,30.13,10.0,Calm,Calm,-,N/A,,Clear,0,2013-09-10 11:35:00
4:55 AM,37.4,28.4,70,30.13,10.0,Calm,Calm,-,N/A,,Clear,0,2013-09-10 11:55:00
5:15 AM,37.4,28.4,70,30.13,10.0,Calm,Calm,-,N/A,,Clear,0,2013-09-10 12:15:00
5:35 AM,37.4,28.4,70,30.12,10.0,Calm,Calm,-,N/A,,Clear,0,2013-09-10 12:35:00
5:55 AM,35.6,28.4,75,30.13,10.0,Calm,Calm,-,N/A,,Clear,0,2013-09-10 12:55:00
6:15 AM,35.6,26.6,70,30.13,10.0,Calm,Calm,-,N/A,,Clear,0,2013-09-10 13:15:00
6:35 AM,37.4,28.4,70,30.14,10.0,Calm,Calm,-,N/A,,Clear,0,2013-09-10 13:35:00
6:55 AM,35.6,28.4,75,30.15,10.0,Calm,Calm,-,N/A,,Clear,0,2013-09-10 13:55:00
7:50 AM,41.0,28.4,61,30.16,10.0,Calm,Calm,-,N/A,,Clear,0,2013-09-10 14:50:00
8:45 AM,50.0,28.4,43,30.16,10.0,Calm,Calm,-,N/A,,Clear,0,2013-09-10 15:45:00
9:45 AM,59.0,30.2,34,30.15,10.0,Calm,Calm,-,N/A,,Clear,0,2013-09-10 16:45:00
10:50 AM,69.8,32.0,25,30.13,10.0,NNE,5.8,-,N/A,,Clear,20,2013-09-10 17:50:00
11:45 AM,73.4,33.8,23,30.12,10.0,SSE,6.9,-,N/A,,Clear,150,2013-09-10 18:45:00
12:55 PM,77.0,32.0,19,30.11,10.0,SSE,9.2,-,N/A,,Partly Cloudy,160,2013-09-10 19:55:00
1:45 PM,77.0,32.0,19,30.10,10.0,NE,3.5,-,N/A,,Scattered Clouds,50,2013-09-10 20:45:00
2:45 PM,78.8,30.2,17,30.08,10.0,ESE,9.2,17.3,N/A,,Scattered Clouds,120,2013-09-10 21:45:00
3:50 PM,80.6,28.4,15,30.06,10.0,West,4.6,-,N/A,,Scattered Clouds,270,2013-09-10 22:50:00
4:50 PM,77.0,28.4,17,30.06,10.0,NE,3.5,-,N/A,,Scattered Clouds,40,2013-09-10 23:50:00
5:50 PM,77.0,32.0,19,30.08,10.0,WNW,6.9,-,N/A,,Mostly Cloudy,300,2013-09-11 00:50:00
5:55 PM,77.0,35.6,22,30.08,10.0,West,6.9,-,N/A,,Mostly Cloudy,260,2013-09-11 00:55:00
6:15 PM,77.0,37.4,24,30.08,10.0,SW,8.1,-,N/A,,Overcast,230,2013-09-11 01:15:00
6:35 PM,75.2,37.4,25,30.09,10.0,SW,6.9,-,N/A,,Mostly Cloudy,220,2013-09-11 01:35:00
6:55 PM,75.2,37.4,25,30.09,10.0,WSW,8.1,-,N/A,,Mostly Cloudy,250,2013-09-11 01:55:00
7:15 PM,73.4,39.2,29,30.10,10.0,WSW,9.2,-,N/A,,Mostly Cloudy,250,2013-09-11 02:15:00
7:35 PM,71.6,39.2,31,30.11,10.0,West,6.9,-,N/A,,Mostly Cloudy,260,2013-09-11 02:35:00
7:55 PM,68.0,37.4,33,30.11,10.0,WSW,8.1,-,N/A,,Mostly Cloudy,240,2013-09-11 02:55:00
8:15 PM,68.0,37.4,33,30.12,10.0,West,5.8,-,N/A,,Scattered Clouds,260,2013-09-11 03:15:00
8:35 PM,68.0,39.2,35,30.13,10.0,Calm,Calm,-,N/A,,Partly Cloudy,0,2013-09-11 03:35:00
8:55 PM,62.6,37.4,39,30.14,10.0,SE,5.8,-,N/A,,Clear,140,2013-09-11 03:55:00
9:15 PM,62.6,37.4,39,30.14,10.0,SSE,3.5,-,N/A,,Clear,160,2013-09-11 04:15:00
9:35 PM,59.0,37.4,45,30.14,10.0,SSE,5.8,-,N/A,,Clear,160,2013-09-11 04:35:00
9:55 PM,57.2,35.6,44,30.15,10.0,SSE,3.5,-,N/A,,Clear,150,2013-09-11 04:55:00
10:15 PM,57.2,37.4,48,30.15,10.0,SSE,5.8,-,N/A,,Clear,150,2013-09-11 05:15:00
10:35 PM,57.2,37.4,48,30.15,10.0,South,3.5,-,N/A,,Clear,170,2013-09-11 05:35:00
10:55 PM,51.8,35.6,54,30.15,10.0,Calm,Calm,-,N/A,,Clear,0,2013-09-11 05:55:00
11:15 PM,55.4,37.4,51,30.16,10.0,Calm,Calm,-,N/A,,Clear,0,2013-09-11 06:15:00
11:35 PM,51.8,35.6,54,30.16,10.0,East,3.5,-,N/A,,Clear,90,2013-09-11 06:35:00
11:55 PM,50.0,35.6,58,30.16,10.0,Calm,Calm,-,N/A,,Clear,0,2013-09-11 06:55:00